#timestamp,LO_Frequency,Hit,StdDev 
1693080015.2,286046999.5,N
1693080035.0,286046999.5,N
1693080035.9,286046999.5,N
1693080055.8,286046999.5,N
1693080075.6,286046996.5,Y
1693080095.4,286046998.6,P
1693080115.3,286046999.0,P
1693080135.1,286046998.8,P
1693080155.8,286046998.6,Y
1693080175.7,286046999.9,P
1693080195.5,286047000.2,N
1693080215.4,286047000.0,N
1693080235.2,286047000.0,N
1693080255.0,286046999.8,N
1693080255.9,286046999.8,N
1693080275.8,286047001.9,Y
1693080295.6,286047001.7,P
1693080315.5,286047001.9,N
1693080335.3,286047001.8,N
1693080355.1,286047004.0,Y
1693080375.9,286047000.1,P
1693080395.7,286047002.3,P
1693080415.5,286047000.3,N
1693080435.4,286046998.2,N
1693080455.2,286046997.4,N
1693080475.1,286046997.0,N
1693080476.0,286046997.0,N
1693080495.8,286046996.6,N
1693080515.6,286046998.0,N
1693080535.5,286046995.4,N
1693080555.3,286046994.9,N
1693080575.2,286046995.4,N
1693080595.9,286046994.9,N
1693080615.7,286046997.2,N
1693080635.6,286046997.8,N
1693080655.4,286046997.2,N
1693080675.3,286046996.8,N
1693080695.1,286046996.9,N
1693080696.0,286046996.9,N
1693080715.8,286046999.1,N
1693080735.7,286046999.2,N
1693080755.5,286046997.5,N
1693080775.4,286046995.3,N
1693080795.2,286046997.4,N
1693080815.0,286046997.8,N
1693080815.9,286046997.8,N
1693080835.8,286046997.0,N
1693080855.6,286046997.2,N
1693080875.4,286046999.5,N
1693080895.3,286046999.2,N
1693080915.1,286046999.6,N
1693080935.9,286046999.3,N
1693080955.7,286046998.7,N
1693080975.5,286047000.7,N
1693080995.4,286046998.7,N
1693081015.2,286046998.4,N
1693081035.0,286046998.7,N
1693081035.9,286046998.7,N
1693081055.8,286046999.2,N
1693081075.6,286046999.3,N
1693081095.5,286046998.7,N
1693081115.3,286047001.1,N
1693081135.1,286046999.9,N
1693081155.9,286046999.8,N
1693081175.7,286047001.2,N
1693081195.6,286047000.5,N
1693081215.4,286046998.5,N
1693081235.2,286046998.5,N
1693081255.1,286046998.3,N
1693081256.0,286046998.3,N
1693081275.8,286047001.0,N
1693081295.6,286046998.2,N
1693081315.5,286047000.5,N
1693081335.3,286047000.3,N
1693081355.2,286047000.9,N
1693081375.9,286047002.4,N
1693081395.7,286046999.9,N
1693081415.6,286046999.7,N
1693081435.4,286047002.5,N
1693081455.2,286047002.3,N
1693081475.1,286047002.8,N
1693081476.0,286047002.8,N
1693081495.8,286047000.1,N
1693081515.7,286047002.7,N
1693081535.5,286047000.2,N
1693081555.3,286047002.3,N
1693081575.2,286047002.8,N
1693081595.0,286047001.7,N
1693081595.9,286047001.7,N
1693081615.7,286047001.8,N
1693081635.6,286047004.3,N
1693081655.4,286047001.6,N
1693081675.3,286047001.5,N
1693081695.1,286047002.0,N
1693081696.0,286047002.0,N
1693081715.8,286047004.4,N
1693081735.7,286047004.4,N
1693081755.5,286047004.3,N
1693081775.4,286047001.3,N
1693081795.2,286047003.8,N
1693081815.0,286047003.1,N
1693081815.9,286047003.1,N
1693081835.8,286047001.5,N
1693081855.6,286047004.1,Y
1693081875.4,286047002.8,P
1693081895.3,286047002.8,P
1693081915.1,286046999.9,N
1693081935.9,286047000.1,N
1693081955.7,286047000.2,N
1693081975.5,286047000.3,N
1693081995.4,286047000.6,N
1693082015.2,286047002.4,N
1693082035.0,286047000.4,N
1693082035.9,286047000.4,N
1693082055.8,286047000.0,N
1693082075.6,286046999.9,N
1693082095.5,286046999.9,N
1693082115.3,286047002.1,N
1693082135.1,286047002.7,N
1693082155.9,286046999.8,N
1693082175.7,286047002.8,N
1693082195.6,286047002.0,N
1693082215.4,286047001.5,N
1693082235.2,286047001.9,N
1693082255.1,286047001.4,N
1693082256.0,286047001.4,N
1693082275.8,286047003.9,Y
1693082295.7,286047002.4,P
1693082315.5,286047002.7,P
1693082335.3,286047002.1,P
1693082355.2,286047002.3,Y
1693082375.0,286046999.3,P
1693082375.9,286046999.3,N
1693082395.8,286046998.9,N
1693082415.6,286046998.2,N
1693082435.4,286046998.7,N
1693082455.3,286046998.4,N
1693082475.1,286047000.3,N
1693082495.8,286047000.4,N
1693082515.7,286047000.5,N
1693082535.5,286047000.9,N
1693082555.4,286047000.6,N
1693082575.2,286047000.6,N
1693082595.0,286047000.3,N
1693082595.9,286047000.3,N
1693082615.8,286047000.3,N
1693082635.6,286047000.3,N
1693082655.5,286047000.5,N
1693082675.3,286047000.3,N
1693082695.1,286047000.8,N
1693082715.9,286047000.8,N
1693082735.7,286047000.6,N
1693082755.5,286047000.9,N
1693082775.4,286047000.9,N
1693082795.2,286047001.0,N
1693082815.1,286047000.9,N
1693082846.0,286047000.2,E
1693082855.9,286047000.4,N
1693082875.7,286047000.8,P
1693082895.6,286047001.0,P
1693082915.4,286047000.2,N
1693082935.3,286047000.6,N
1693082955.1,286046998.6,Y
1693082956.0,286046998.6,P
1693082975.8,286046998.4,N
1693082995.7,286046998.7,N
1693083015.5,286046998.3,N
1693083035.3,286046998.5,N
1693083055.2,286046998.1,N
1693083075.0,286047000.8,N
1693083075.9,286047000.8,N
1693083095.8,286047000.4,N
1693083115.6,286047000.2,N
1693083135.4,286047001.0,N
1693083155.3,286047000.7,N
1693083175.1,286047001.1,N
1693083195.8,286047000.4,N
1693083215.7,286046999.9,N
1693083235.5,286047000.2,N
1693083255.4,286047000.9,N
1693083275.2,286047000.9,N
1693083295.0,286047000.8,N
1693083295.9,286047000.8,N
1693083315.8,286046998.2,N
1693083335.6,286046998.2,N
1693083355.4,286046998.6,N
1693083375.3,286047001.2,N
1693083395.1,286046999.9,N
1693083415.8,286046999.8,N
1693083435.7,286047000.0,N
1693083455.5,286047000.4,N
1693083475.4,286046999.8,N
1693083495.2,286047002.4,N
1693083515.0,286047000.1,N
1693083515.9,286047000.1,N
1693083535.8,286047002.8,N
1693083555.6,286046999.7,N
1693083575.4,286047002.3,N
1693083595.3,286046999.8,N
